COSMOS 2485 (747)

Last updated on Sat Sep 19 2026 00:03:24 GMT+0000 (Coordinated Universal Time)

1 39155U 13019A 26260.82327476 .00000015 00000+0 00000+0 0 9996 2 39155 65.4768 70.4982 0023248 226.0562 133.7810 2.13103120104251
UTC large
Height (km)
Speed (km/s)
/
Latitude / Longitude
Inclination (degrees)
Orbital Period (minutes)
Azimuth
Elevation
Range (km)
Doppler Factor

Next 0 passes for location: London (51.5072 / 0.1276)

No passes found over London.
COSMOS 2485 (747)